Wind_Speed
0 0 0 1 1 1 1 1 1 1 2 3 4 4 5 5 6 7 7 8 9 9 9 10 9 9 10 10 9 9 9 8 8 8 8 8 7 7 6 7 7 6 7 7 6 6 6 6 6
0 1 1 1 2 2 2 2 2 2 2 3 3 4 4 5 5 6 6 7 8 9 10 10 9 10 10 10 10 10 10 10 9 9 9 9 9 8 7 7 8 7 8 8 7 7 7 7 7
1 1 2 2 2 2 2 2 2 2 2 2 3 3 4 4 4 5 6 6 7 8 9 9 10 10 10 11 11 11 11 11 11 10 10 9 9 9 9 8 9 9 9 9 9 9 9 8 8
1 2 2 2 2 2 2 2 2 2 2 2 2 2 3 3 3 4 5 5 6 8 9 9 9 10 11 11 12 13 13 13 12 11 11 11 10 10 10 9 9 10 10 10 10 9 9 9 8
2 2 2 2 1 2 2 2 2 2 2 2 2 2 2 2 2 3 3 4 5 7 8 9 9 9 9 11 11 13 14 13 13 12 12 12 11 12 11 10 10 10 10 11 11 10 10 9 9
2 2 2 2 2 2 2 3 2 2 2 2 2 2 2 2 2 2 3 4 4 5 6 7 8 8 9 9 10 12 13 13 13 13 13 13 12 12 11 11 11 11 10 10 10 11 11 11 10
2 2 2 2 2 2 2 2 2 2 2 2 2 2 2 2 2 2 3 3 4 5 5 6 7 8 8 8 8 9 11 12 12 12 13 13 13 12 12 11 11 11 11 11 11 11 12 12 11
3 3 3 3 3 2 2 2 2 2 2 2 2 2 3 3 3 3 3 3 3 4 4 5 6 6 7 7 7 7 8 9 10 11 11 12 13 13 13 13 12 12 12 12 12 12 12 12 12
3 4 4 4 4 4 3 2 2 2 2 3 3 3 3 3 3 3 3 3 3 4 4 4 5 6 6 7 7 8 8 9 9 10 10 11 12 12 13 13 13 12 12 12 13 13 13 13 13
3 4 4 4 4 4 4 4 3 3 3 3 3 4 4 4 3 3 4 4 4 4 5 5 5 5 6 6 6 7 8 9 9 10 10 10 11 11 12 12 12 12 13 13 13 13 14 14 14
3 4 4 5 5 5 5 5 4 4 4 4 4 4 4 4 4 4 4 4 4 5 5 4 4 4 5 5 6 6 7 8 9 9 10 10 11 11 11 12 12 12 12 13 13 13 14 14 15
4 4 4 5 5 5 5 5 5 5 5 4 4 4 4 4 4 4 4 4 4 4 5 4 4 4 4 5 5 5 6 7 8 9 10 10 10 11 11 11 11 11 11 12 13 14 13 14 14
5 4 5 5 5 5 5 5 5 4 4 4 4 4 3 3 4 4 4 4 4 4 4 4 5 5 5 5 5 5 6 7 8 8 9 10 10 10 11 11 10 11 11 11 11 13 13 14 14
5 5 5 6 6 5 5 5 4 4 5 5 4 4 4 4 4 4 4 4 4 4 4 5 5 5 6 6 6 6 7 7 7 8 9 9 10 10 11 10 10 10 11 11 11 11 12 13 13
5 5 6 6 6 6 6 5 6 5 5 5 4 4 4 4 4 4 4 4 4 5 5 6 6 6 6 6 6 7 7 7 8 8 9 9 9 10 11 11 10 10 11 11 10 10 11 12 13
5 6 6 7 7 7 7 6 6 6 5 5 5 5 5 5 5 5 5 5 5 5 5 6 6 6 6 7 7 7 7 8 8 8 9 9 9 10 10 10 10 10 10 10 10 10 11 11 12
5 6 7 7 7 7 7 7 7 6 6 6 6 6 6 5 5 5 6 6 6 5 5 6 6 6 6 7 7 7 8 8 9 9 9 9 10 10 10 11 11 10 10 10 10 10 11 11 12
6 7 8 8 7 7 7 8 8 7 7 7 7 7 6 6 6 6 6 6 6 6 5 5 6 7 7 6 6 7 7 8 8 9 9 9 9 10 10 11 11 11 11 10 10 10 10 11 11
6 7 7 7 7 7 8 8 8 9 9 8 7 8 8 8 7 7 7 7 7 7 6 6 7 7 7 7 7 7 8 8 8 8 9 9 9 9 10 10 11 11 11 11 11 11 11 11 11
6 5 6 7 7 7 7 8 9 10 9 9 8 9 9 9 8 8 8 9 9 8 8 7 7 7 7 8 8 8 8 8 9 9 9 9 10 10 10 10 10 11 11 11 11 11 11 11 11
6 6 7 7 7 7 7 7 9 10 10 10 9 9 10 10 9 9 9 10 10 10 10 9 9 9 9 9 10 10 10 10 10 10 10 10 11 11 11 11 11 11 11 12 12 12 12 12 12
6 7 8 8 8 8 8 8 9 10 10 10 10 10 11 11 11 11 11 11 11 11 11 11 11 11 11 11 11 11 12 11 11 12 12 12 12 12 13 12 12 12 13 13 13 12 12 12 12
7 8 8 8 9 9 9 9 10 10 11 11 12 12 11 12 12 12 13 12 12 12 13 13 13 13 13 13 13 13 13 13 13 13 13 14 13 13 14 14 14 14 14 14 13 13 13 13 13
9 9 9 9 9 9 9 10 10 10 11 12 12 12 12 13 13 14 14 14 14 14 14 14 15 15 15 15 14 14 14 14 14 14 14 15 15 15 15 14 15 15 15 15 15 15 14 14 15
10 9 9 10 10 10 10 11 11 11 11 12 13 13 14 15 15 15 15 15 15 16 16 16 16 15 16 16 16 16 16 16 16 16 16 16 16 16 15 15 15 16 16 15 15 15 15 15 16
11 11 10 11 11 12 12 11 12 12 13 13 14 14 15 15 15 15 16 16 17 17 17 17 17 17 17 17 18 18 17 17 17 17 17 17 17 17 16 16 16 16 16 16 16 16 16 16 16
12 12 12 12 12 13 13 12 13 13 14 14 14 15 16 16 16 17 17 17 18 18 18 18 19 19 19 18 18 18 18 18 18 18 18 18 18 18 18 17 17 17 17 17 18 18 18 18 17
14 13 13 13 13 13 14 14 14 14 14 15 15 16 16 17 17 18 18 18 18 18 19 19 20 20 20 19 19 19 19 19 19 18 18 18 18 18 18 18 18 18 18 18 19 19 19 19 19
15 15 14 15 15 15 15 16 15 15 16 16 16 17 17 17 18 18 18 19 19 19 19 20 19 19 20 20 20 20 20 20 20 20 19 19 19 18 19 19 19 19 19 19 19 19 19 20 21
17 16 16 16 16 16 17 17 16 16 16 17 17 17 18 18 19 19 19 20 20 20 20 20 20 20 21 21 21 21 21 22 22 22 21 21 21 21 20 20 21 21 21 20 20 20 20 21 21
Wind_Direction
90 1 333 324 307 296 279 266 251 226 219 217 210 207 213 220 221 222 222 221 222 221 219 216 217 222 222 221 221 221 225 223 220 218 216 220 222 222 218 215 212 209 206 207 206 204 200 199 204
306 296 303 306 307 298 282 270 258 244 223 208 210 217 225 225 227 226 224 223 223 222 221 222 224 227 228 226 227 226 228 228 225 224 222 224 226 228 228 227 224 226 218 214 217 219 218 214 217
279 277 289 295 297 296 288 280 277 251 225 215 217 221 228 225 228 227 228 228 226 224 223 226 229 231 232 233 233 230 228 230 229 228 227 228 229 230 230 229 227 228 227 227 227 227 228 225 229
283 278 276 283 294 285 273 270 271 269 238 219 222 230 229 219 220 227 231 231 229 228 230 232 233 236 237 238 236 233 231 231 231 230 230 230 229 230 231 232 230 229 229 228 230 230 230 230 233
276 274 272 274 291 276 267 260 265 273 262 228 219 221 226 221 218 229 232 231 233 233 235 240 244 241 241 241 241 235 231 230 232 231 231 231 232 233 233 231 231 231 233 232 232 233 233 231 234
268 263 274 276 278 274 267 260 263 266 256 235 222 221 239 241 239 236 230 232 237 241 242 243 245 241 243 243 240 235 232 229 232 233 232 234 234 233 231 229 230 232 234 235 236 236 235 235 237
248 250 257 260 265 270 266 253 244 249 243 238 244 242 249 251 255 244 235 239 244 247 244 246 242 241 243 240 236 233 227 228 231 233 233 233 233 232 231 230 231 233 236 235 235 236 236 238 240
249 247 250 246 252 254 252 240 228 241 247 248 250 249 257 260 258 255 246 247 251 250 249 246 239 239 236 234 236 231 227 228 228 230 233 231 230 230 230 231 234 236 238 238 240 238 238 238 240
254 247 248 246 246 240 230 223 226 238 245 245 248 257 265 264 261 256 249 248 252 252 251 249 245 243 237 238 236 232 229 229 230 231 234 232 232 233 233 234 236 240 241 243 243 241 239 237 238
259 254 247 243 241 232 226 229 235 245 248 253 259 261 262 264 260 255 254 250 251 255 258 259 252 242 235 232 231 232 232 232 231 233 237 237 238 237 238 240 239 242 245 245 244 243 241 241 240
261 257 249 241 238 237 232 233 238 245 253 263 266 266 264 264 258 253 255 254 253 255 257 259 252 240 232 229 229 232 233 232 232 235 236 238 240 242 241 241 242 246 247 248 246 244 243 242 242
258 255 248 241 239 240 239 239 240 246 250 257 263 271 267 263 259 253 255 257 253 250 250 251 250 244 237 233 233 236 236 234 235 237 238 239 242 245 245 246 247 247 248 246 246 244 244 242 242
249 252 251 247 246 247 249 244 243 244 244 246 253 260 261 262 261 258 256 259 255 250 246 245 245 244 242 239 239 245 244 242 242 243 243 244 244 244 244 245 246 247 248 250 244 243 242 242 243
249 250 253 252 248 244 239 239 242 243 246 246 249 251 253 258 259 262 259 260 259 252 251 250 246 245 245 248 252 254 254 251 248 246 247 246 246 246 244 243 244 248 250 252 253 250 245 242 244
252 250 252 249 245 239 241 244 246 246 242 244 248 252 250 254 254 256 258 261 263 260 257 253 250 250 250 252 256 258 257 256 254 252 251 250 249 249 249 246 246 249 249 249 248 248 248 246 245
255 252 254 251 246 238 241 247 252 246 242 243 247 252 252 249 251 258 262 265 268 268 262 255 254 254 255 258 260 261 260 261 259 255 254 252 250 249 249 249 250 249 249 249 249 249 252 249 247
260 257 256 254 246 242 243 245 245 246 246 246 248 251 252 249 255 262 265 266 267 266 260 255 255 256 259 263 264 264 264 265 262 258 258 257 253 251 250 250 250 248 249 251 250 251 251 249 249
259 257 251 247 245 245 246 247 246 247 247 247 248 250 251 251 257 262 266 268 268 263 258 259 260 259 261 264 264 266 268 265 262 259 257 256 253 252 252 252 252 251 251 251 251 250 253 255 253
259 259 252 249 246 247 248 249 249 247 247 248 248 245 246 251 259 265 266 268 267 263 262 266 267 264 263 267 267 267 269 266 262 261 259 257 255 254 254 254 253 252 252 252 254 254 254 255 255
261 260 257 255 253 254 251 248 252 250 248 248 245 245 247 251 258 262 263 262 264 264 264 265 268 267 267 270 272 270 269 269 267 265 267 262 259 258 255 255 254 252 251 252 253 254 255 255 257
258 256 252 254 256 259 262 259 256 252 251 251 251 251 251 253 258 263 266 267 267 266 264 263 266 268 269 270 271 270 269 267 267 267 266 262 260 260 258 256 255 254 254 253 254 257 257 257 259
256 255 255 257 260 266 267 265 260 257 252 253 255 257 257 258 259 262 265 269 268 266 265 263 265 268 271 272 272 271 270 269 267 267 265 264 262 261 260 259 258 257 257 256 256 259 258 260 262
258 259 260 261 263 267 270 270 264 261 256 255 256 256 256 258 261 261 264 267 268 267 266 265 266 267 269 272 273 271 271 270 269 268 266 266 265 264 261 259 259 259 259 258 258 259 259 261 262
260 264 267 267 268 269 271 272 269 264 260 259 258 256 256 257 259 259 261 264 267 268 266 267 268 269 271 273 274 273 271 270 269 268 268 267 266 264 261 259 258 257 258 259 259 259 260 260 263
260 264 270 273 272 270 271 272 273 270 263 262 261 259 256 256 259 261 261 264 265 266 266 267 269 271 273 273 274 272 270 270 269 269 268 268 265 262 261 259 258 257 258 259 259 258 259 261 262
260 262 264 269 272 272 272 274 274 273 268 265 263 261 259 258 260 262 263 264 265 266 267 267 267 269 271 272 272 271 269 269 269 268 267 266 264 261 259 259 258 258 259 260 261 260 261 263 263
258 259 264 268 270 270 272 276 276 275 272 269 265 263 262 261 262 264 265 266 267 267 267 267 265 267 268 270 270 269 269 269 269 269 266 263 261 259 257 257 257 257 259 261 262 262 262 263 264
258 261 263 267 270 271 272 274 276 277 275 270 268 267 264 263 264 265 266 266 268 268 267 270 269 269 267 268 269 268 267 269 269 270 269 264 262 259 258 258 258 258 260 261 262 263 264 265 265
259 260 262 265 267 269 273 276 278 279 277 275 271 269 268 265 266 266 267 268 267 267 270 271 270 269 268 268 269 269 268 268 268 270 268 263 262 260 259 260 259 259 260 260 261 263 265 266 267
258 259 261 266 268 269 271 275 278 280 278 276 272 271 271 270 268 267 267 268 266 267 270 270 270 270 270 270 271 272 271 268 268 268 267 265 262 261 261 261 261 261 260 261 262 263 265 266 266
Height
5868 5868 5869 5869 5870 5870 5869 5869 5868 5868 5868 5868 5868 5868 5869 5869 5870 5873 5870 5869 5870 5870 5871 5872 5872 5873 5873 5874 5874 5875 5876 5876 5877 5878 5878 5878 5879 5879 5879 5879 5880 5880 5881 5882 5882 5883 5883 5883 5884
5868 5868 5869 5869 5869 5869 5869 5868 5867 5867 5867 5867 5867 5867 5867 5867 5868 5868 5868 5868 5869 5869 5870 5870 5871 5871 5872 5872 5873 5873 5874 5875 5876 5876 5877 5877 5878 5878 5879 5879 5879 5880 5880 5881 5882 5882 5883 5883 5883
5867 5868 5869 5869 5868 5868 5868 5867 5866 5866 5866 5866 5866 5866 5866 5866 5867 5867 5867 5867 5867 5868 5868 5869 5869 5870 5870 5870 5871 5871 5872 5873 5874 5875 5875 5876 5876 5877 5878 5878 5879 5879 5879 5880 5881 5881 5882 5882 5882
5867 5868 5868 5868 5867 5867 5866 5866 5865 5865 5865 5865 5865 5865 5865 5865 5865 5865 5865 5865 5866 5866 5867 5867 5868 5868 5868 5868 5868 5868 5869 5871 5872 5873 5874 5875 5875 5876 5876 5877 5877 5878 5878 5879 5880 5880 5881 5881 5881
5866 5867 5867 5867 5866 5866 5866 5865 5865 5865 5865 5864 5864 5864 5864 5864 5864 5864 5864 5864 5864 5865 5865 5865 5866 5866 5866 5864 5864 5864 5866 5868 5870 5871 5872 5873 5873 5874 5875 5875 5876 5876 5877 5878 5878 5879 5879 5880 5880
5866 5866 5867 5866 5866 5866 5865 5864 5864 5864 5864 5864 5864 5864 5864 5864 5863 5863 5863 5863 5863 5863 5864 5864 5864 5864 5864 5863 5861 5861 5863 5866 5868 5869 5870 5871 5872 5872 5873 5874 5875 5875 5876 5876 5877 5877 5878 5878 5879
5866 5865 5865 5865 5865 5865 5865 5864 5864 5864 5863 5863 5863 5863 5863 5863 5863 5863 5863 5862 5862 5862 5862 5862 5863 5863 5863 5862 5862 5862 5863 5865 5867 5868 5869 5869 5870 5871 5872 5872 5873 5873 5874 5874 5875 5876 5876 5877 5877
5864 5865 5864 5864 5864 5864 5864 5863 5863 5863 5863 5863 5863 5862 5862 5862 5862 5862 5862 5862 5861 5861 5861 5861 5862 5862 5862 5862 5862 5862 5863 5864 5865 5866 5867 5867 5868 5869 5870 5870 5871 5871 5872 5872 5873 5874 5874 5875 5875
5862 5864 5863 5863 5863 5863 5863 5863 5862 5862 5862 5862 5862 5862 5862 5861 5861 5861 5861 5861 5861 5861 5861 5861 5861 5861 5861 5861 5861 5862 5862 5863 5864 5864 5865 5865 5866 5866 5867 5868 5869 5869 5870 5870 5871 5872 5872 5873 5873
5861 5862 5862 5862 5862 5862 5862 5862 5862 5862 5862 5861 5861 5861 5861 5861 5861 5860 5860 5860 5860 5860 5860 5860 5860 5860 5860 5860 5860 5861 5861 5862 5862 5863 5863 5863 5864 5865 5865 5866 5866 5867 5868 5868 5868 5869 5870 5870 5871
5860 5860 5860 5860 5860 5860 5860 5861 5861 5861 5861 5861 5860 5860 5860 5860 5860 5860 5859 5859 5859 5859 5859 5859 5859 5859 5859 5859 5859 5859 5860 5860 5861 5861 5861 5862 5862 5863 5863 5864 5864 5865 5865 5865 5866 5866 5867 5868 5868
5858 5858 5858 5858 5858 5859 5859 5859 5859 5859 5860 5859 5859 5859 5859 5859 5858 5859 5859 5859 5859 5859 5858 5858 5858 5858 5858 5858 5858 5858 5859 5859 5859 5860 5860 5860 5861 5861 5861 5862 5862 5863 5863 5863 5863 5864 5864 5865 5866
5857 5857 5857 5857 5857 5857 5858 5858 5858 5858 5858 5858 5858 5858 5858 5858 5858 5857 5858 5858 5858 5858 5858 5858 5857 5857 5857 5857 5858 5858 5858 5858 5858 5858 5858 5859 5859 5859 5860 5860 5860 5861 5861 5861 5861 5861 5862 5863 5863
5855 5855 5855 5855 5855 5856 5856 5857 5857 5857 5857 5857 5857 5857 5856 5856 5856 5856 5856 5857 5857 5857 5857 5857 5857 5856 5856 5856 5856 5856 5856 5856 5856 5856 5857 5857 5857 5857 5858 5858 5858 5858 5858 5858 5859 5859 5859 5860 5861
5853 5854 5854 5854 5854 5854 5855 5856 5855 5855 5856 5856 5855 5855 5855 5855 5855 5855 5855 5856 5856 5855 5855 5856 5855 5855 5855 5855 5855 5855 5855 5855 5855 5855 5855 5855 5855 5855 5856 5856 5856 5856 5856 5856 5857 5857 5857 5858 5858
5852 5852 5852 5852 5852 5853 5855 5855 5854 5854 5854 5854 5854 5854 5854 5854 5854 5854 5854 5854 5854 5854 5854 5854 5854 5854 5854 5854 5854 5853 5853 5853 5853 5853 5853 5853 5853 5853 5854 5854 5854 5854 5854 5854 5854 5855 5855 5855 5855
5850 5851 5851 5851 5851 5851 5852 5852 5852 5852 5852 5853 5853 5853 5853 5853 5853 5853 5853 5853 5853 5853 5853 5853 5853 5853 5852 5852 5852 5852 5851 5851 5851 5851 5851 5851 5851 5851 5851 5852 5852 5852 5852 5852 5852 5852 5853 5853 5853
5849 5848 5848 5849 5849 5849 5850 5850 5850 5850 5851 5851 5851 5851 5851 5851 5851 5851 5851 5851 5851 5851 5851 5851 5851 5851 5850 5850 5850 5850 5850 5849 5849 5849 5849 5849 5849 5849 5849 5849 5849 5849 5850 5850 5850 5850 5850 5850 5851
5846 5846 5846 5846 5846 5847 5848 5848 5848 5848 5848 5849 5849 5849 5849 5850 5850 5850 5850 5850 5850 5850 5849 5849 5849 5849 5849 5848 5848 5848 5848 5847 5847 5847 5847 5847 5847 5847 5847 5847 5847 5847 5847 5848 5848 5848 5848 5848 5848
5844 5845 5845 5844 5844 5845 5846 5846 5846 5845 5846 5846 5847 5847 5847 5848 5848 5848 5848 5848 5848 5848 5848 5848 5847 5847 5847 5847 5846 5846 5846 5845 5845 5845 5845 5844 5844 5844 5844 5844 5845 5845 5845 5845 5845 5846 5846 5846 5846
5842 5843 5843 5843 5843 5843 5844 5844 5844 5843 5844 5844 5844 5845 5845 5845 5846 5846 5846 5846 5846 5846 5846 5845 5845 5845 5845 5845 5844 5844 5843 5843 5843 5843 5842 5842 5842 5842 5842 5842 5842 5842 5842 5843 5843 5843 5843 5843 5843
5840 5841 5841 5841 5841 5841 5842 5842 5842 5841 5841 5841 5842 5842 5843 5843 5843 5843 5843 5843 5843 5843 5843 5843 5843 5843 5842 5842 5842 5841 5841 5840 5840 5840 5839 5839 5839 5839 5839 5839 5839 5839 5839 5839 5840 5840 5840 5840 5840
5838 5838 5838 5839 5839 5839 5839 5839 5840 5838 5839 5839 5839 5839 5840 5840 5840 5840 5840 5840 5840 5840 5840 5840 5840 5840 5840 5839 5839 5838 5838 5837 5837 5837 5836 5836 5836 5836 5836 5836 5836 5836 5836 5836 5836 5836 5837 5837 5837
5835 5836 5836 5836 5836 5837 5837 5837 5837 5836 5836 5836 5836 5836 5836 5836 5836 5837 5837 5837 5837 5837 5837 5837 5837 5836 5836 5836 5835 5835 5835 5834 5834 5833 5833 5833 5832 5832 5832 5832 5832 5832 5832 5832 5833 5833 5833 5833 5833
5833 5834 5834 5834 5834 5834 5834 5833 5834 5833 5832 5832 5833 5833 5832 5833 5833 5833 5833 5833 5833 5833 5833 5833 5833 5832 5832 5832 5831 5831 5831 5830 5830 5829 5829 5829 5828 5828 5828 5828 5828 5828 5828 5828 5828 5829 5829 5829 5829
5830 5831 5832 5832 5832 5831 5830 5830 5830 5829 5829 5828 5829 5829 5829 5829 5829 5829 5829 5829 5829 5829 5829 5829 5828 5828 5828 5827 5827 5826 5826 5826 5825 5825 5825 5824 5824 5824 5824 5824 5824 5824 5824 5824 5824 5824 5825 5825 5825
5827 5827 5828 5828 5827 5827 5827 5827 5826 5825 5825 5824 5824 5824 5825 5825 5825 5825 5825 5825 5825 5824 5824 5824 5823 5823 5823 5822 5822 5821 5821 5821 5821 5820 5820 5819 5819 5819 5819 5819 5819 5819 5819 5819 5819 5820 5820 5820 5820
5823 5823 5824 5824 5823 5823 5824 5823 5823 5821 5820 5820 5820 5820 5820 5820 5820 5820 5820 5820 5820 5820 5819 5819 5818 5818 5817 5817 5816 5816 5816 5816 5815 5815 5815 5814 5814 5814 5814 5814 5814 5814 5814 5814 5814 5814 5815 5814 5814
5819 5819 5819 5819 5819 5820 5819 5821 5818 5817 5816 5815 5815 5815 5815 5815 5815 5815 5815 5815 5814 5814 5814 5813 5813 5812 5812 5812 5811 5811 5810 5810 5810 5810 5809 5809 5809 5808 5808 5808 5808 5808 5809 5809 5809 5809 5809 5809 5809
5814 5814 5815 5815 5815 5814 5814 5817 5813 5812 5811 5811 5810 5810 5810 5810 5810 5809 5809 5809 5809 5808 5808 5807 5807 5807 5806 5806 5805 5805 5804 5804 5804 5804 5803 5803 5803 5803 5803 5803 5802 5803 5803 5803 5803 5803 5803 5803 5803